Time,TemperatureF,DewpointF,PressureIn,WindDirection,WindDirectionDegrees,WindSpeedMPH,WindSpeedGustMPH,Humidity,HourlyPrecipIn,Conditions,Clouds,dailyrainin,SoftwareType,DateUTC
2013-09-18 00:01:00,79.3,74.7,29.93,East,84,2.3,2.3,86,0.00,RA,,0.00,WeatherDisplay:10.37,2013-09-18 04:01:00,
2013-09-18 00:02:00,79.3,74.7,29.93,East,90,3.5,3.5,86,0.00,RA,,0.00,WeatherDisplay:10.37,2013-09-18 04:02:00,
2013-09-18 00:07:00,79.2,74.6,29.93,ENE,76,1.2,0.0,86,0.00,RA,,0.00,WeatherDisplay:10.37,2013-09-18 04:07:00,
2013-09-18 00:12:00,79.1,74.5,29.93,ENE,76,1.2,1.2,86,0.00,CLR,,0.00,WeatherDisplay:10.37,2013-09-18 04:12:00,
2013-09-18 00:17:00,79.0,74.5,29.93,ENE,76,0.0,0.0,86,0.00,CLR,,0.00,WeatherDisplay:10.37,2013-09-18 04:17:00,
2013-09-18 00:22:00,78.9,74.4,29.93,ESE,119,1.2,1.2,86,0.00,CLR,,0.00,WeatherDisplay:10.37,2013-09-18 04:22:00,
2013-09-18 00:27:00,78.9,74.4,29.93,ESE,120,2.3,2.3,86,0.00,CLR,,0.00,WeatherDisplay:10.37,2013-09-18 04:27:00,
2013-09-18 00:32:00,78.8,74.3,29.93,ESE,117,3.5,3.5,86,0.00,CLR,,0.00,WeatherDisplay:10.37,2013-09-18 04:32:00,
2013-09-18 00:37:00,78.7,74.5,29.93,ESE,119,3.5,3.5,87,0.00,CLR,,0.00,WeatherDisplay:10.37,2013-09-18 04:37:00,
2013-09-18 00:42:00,78.7,74.2,29.93,ESE,120,3.5,3.5,86,0.00,CLR,,0.00,WeatherDisplay:10.37,2013-09-18 04:42:00,
2013-09-18 00:47:00,78.7,74.2,29.93,SE,138,3.5,3.5,86,0.00,CLR,,0.00,WeatherDisplay:10.37,2013-09-18 04:47:00,
2013-09-18 00:52:00,78.5,74.0,29.93,ESE,117,11.5,11.5,86,0.00,CLR,,0.00,WeatherDisplay:10.37,2013-09-18 04:52:00,
2013-09-18 00:57:00,78.7,74.2,29.93,ESE,121,6.9,6.9,86,0.00,CLR,,0.00,WeatherDisplay:10.37,2013-09-18 04:57:00,
2013-09-18 01:02:00,78.6,73.7,29.93,SE,134,10.0,10.0,85,0.00,CLR,,0.00,WeatherDisplay:10.37,2013-09-18 05:02:00,
2013-09-18 01:07:00,78.6,73.0,29.93,SE,125,6.9,6.9,83,0.00,CLR,,0.00,WeatherDisplay:10.37,2013-09-18 05:07:00,
2013-09-18 01:12:00,78.6,72.6,29.93,ESE,116,4.0,4.0,82,0.00,CLR,,0.00,WeatherDisplay:10.37,2013-09-18 05:12:00,
2013-09-18 01:17:00,78.4,72.8,29.93,East,86,3.5,3.5,83,0.00,CLR,,0.00,WeatherDisplay:10.37,2013-09-18 05:17:00,
2013-09-18 01:22:00,78.2,73.0,29.93,SE,132,3.5,3.5,84,0.00,CLR,,0.00,WeatherDisplay:10.37,2013-09-18 05:22:00,
2013-09-18 01:27:00,78.0,73.1,29.93,East,88,3.5,3.5,85,0.00,CLR,,0.00,WeatherDisplay:10.37,2013-09-18 05:27:00,
2013-09-18 01:31:00,77.9,73.0,29.93,ENE,67,3.5,3.5,85,0.00,CLR,,0.00,WeatherDisplay:10.37,2013-09-18 05:31:00,
2013-09-18 01:36:00,77.9,73.4,29.92,ENE,75,3.5,3.5,86,0.00,CLR,,0.00,WeatherDisplay:10.37,2013-09-18 05:36:00,
2013-09-18 01:41:00,77.9,73.7,29.92,ENE,75,3.5,3.5,87,0.00,CLR,,0.00,WeatherDisplay:10.37,2013-09-18 05:41:00,
2013-09-18 01:46:00,77.9,73.7,29.92,ENE,69,3.5,3.5,87,0.00,CLR,,0.00,WeatherDisplay:10.37,2013-09-18 05:46:00,
2013-09-18 01:51:00,77.9,74.1,29.92,East,82,2.3,2.3,88,0.00,CLR,,0.00,WeatherDisplay:10.37,2013-09-18 05:51:00,
2013-09-18 01:56:00,77.9,74.1,29.92,East,87,1.2,1.2,88,0.00,CLR,,0.00,WeatherDisplay:10.37,2013-09-18 05:56:00,
2013-09-18 02:01:00,77.9,74.1,29.91,ESE,117,3.5,3.5,88,0.00,CLR,,0.00,WeatherDisplay:10.37,2013-09-18 06:01:00,
2013-09-18 02:06:00,77.9,74.4,29.91,SE,126,9.2,9.2,89,0.00,CLR,,0.00,WeatherDisplay:10.37,2013-09-18 06:06:00,
2013-09-18 02:11:00,77.9,74.4,29.91,East,85,3.0,3.0,89,0.00,CLR,,0.00,WeatherDisplay:10.37,2013-09-18 06:11:00,
2013-09-18 02:16:00,77.7,73.5,29.91,East,87,5.8,5.8,87,0.00,CLR,,0.00,WeatherDisplay:10.37,2013-09-18 06:16:00,
2013-09-18 02:21:00,77.6,73.4,29.91,ESE,122,3.5,3.5,87,0.00,CLR,,0.00,WeatherDisplay:10.37,2013-09-18 06:21:00,
2013-09-18 02:26:00,77.5,73.3,29.91,ESE,116,4.0,4.0,87,0.00,CLR,,0.00,WeatherDisplay:10.37,2013-09-18 06:26:00,
2013-09-18 02:31:00,77.2,73.0,29.91,ESE,114,3.5,3.5,87,0.00,CLR,,0.00,WeatherDisplay:10.37,2013-09-18 06:31:00,
2013-09-18 02:36:00,77.1,72.9,29.90,East,90,3.5,3.5,87,0.00,CLR,,0.00,WeatherDisplay:10.37,2013-09-18 06:36:00,
2013-09-18 02:41:00,77.1,72.9,29.90,East,84,4.0,4.0,87,0.00,CLR,,0.00,WeatherDisplay:10.37,2013-09-18 06:41:00,
2013-09-18 02:46:00,77.1,72.9,29.90,East,90,3.5,3.5,87,0.00,CLR,,0.00,WeatherDisplay:10.37,2013-09-18 06:46:00,
2013-09-18 02:51:00,77.2,73.0,29.90,East,86,0.0,0.0,87,0.00,CLR,,0.00,WeatherDisplay:10.37,2013-09-18 06:51:00,
2013-09-18 02:56:00,77.1,72.9,29.90,ESE,112,2.3,2.3,87,0.00,CLR,,0.00,WeatherDisplay:10.37,2013-09-18 06:56:00,
2013-09-18 03:01:00,77.1,72.6,29.90,ESE,112,2.0,2.0,86,0.00,CLR,,0.00,WeatherDisplay:10.37,2013-09-18 07:01:00,
2013-09-18 03:06:00,77.1,72.6,29.90,ESE,112,1.2,1.2,86,0.00,CLR,,0.00,WeatherDisplay:10.37,2013-09-18 07:06:00,
2013-09-18 03:11:00,77.1,72.2,29.90,ESE,112,1.2,1.2,85,0.00,CLR,,0.00,WeatherDisplay:10.37,2013-09-18 07:11:00,
2013-09-18 03:16:00,77.1,72.2,29.90,ESE,112,2.3,2.3,85,0.00,CLR,,0.00,WeatherDisplay:10.37,2013-09-18 07:16:00,
2013-09-18 03:21:00,77.1,72.6,29.89,ESE,112,1.2,1.2,86,0.00,CLR,,0.00,WeatherDisplay:10.37,2013-09-18 07:21:00,
2013-09-18 03:26:00,77.1,72.9,29.89,East,97,1.2,1.2,87,0.00,CLR,,0.00,WeatherDisplay:10.37,2013-09-18 07:26:00,
2013-09-18 03:31:00,77.0,72.8,29.89,East,97,2.3,2.3,87,0.00,CLR,,0.00,WeatherDisplay:10.37,2013-09-18 07:31:00,
2013-09-18 03:36:00,76.9,73.1,29.89,East,86,3.5,3.5,88,0.00,CLR,,0.00,WeatherDisplay:10.37,2013-09-18 07:36:00,
2013-09-18 03:41:00,76.9,73.1,29.90,ENE,59,3.5,3.5,88,0.00,CLR,,0.00,WeatherDisplay:10.37,2013-09-18 07:41:00,
2013-09-18 03:46:00,76.8,73.0,29.90,NE,46,4.0,4.0,88,0.00,CLR,,0.00,WeatherDisplay:10.37,2013-09-18 07:46:00,
2013-09-18 03:51:00,76.7,73.2,29.90,ENE,62,2.3,2.3,89,0.00,CLR,,0.00,WeatherDisplay:10.37,2013-09-18 07:51:00,
2013-09-18 03:56:00,76.7,73.5,29.90,ENE,63,3.5,3.5,90,0.00,CLR,,0.00,WeatherDisplay:10.37,2013-09-18 07:56:00,
2013-09-18 04:01:00,76.7,73.5,29.90,ENE,62,2.3,2.3,90,0.00,CLR,,0.00,WeatherDisplay:10.37,2013-09-18 08:01:00,
2013-09-18 04:06:00,76.7,73.5,29.90,ENE,60,2.3,2.3,90,0.00,CLR,,0.00,WeatherDisplay:10.37,2013-09-18 08:06:00,
2013-09-18 04:11:00,76.6,73.4,29.89,NE,49,2.3,2.3,90,0.00,CLR,,0.00,WeatherDisplay:10.37,2013-09-18 08:11:00,
2013-09-18 04:16:00,76.4,73.2,29.89,NE,49,1.2,1.2,90,0.00,CLR,,0.00,WeatherDisplay:10.37,2013-09-18 08:16:00,
2013-09-18 04:21:00,76.1,73.0,29.89,NE,49,0.0,0.1,90,0.00,CLR,,0.00,WeatherDisplay:10.37,2013-09-18 08:21:00,
2013-09-18 04:26:00,75.9,73.1,29.89,NE,49,0.0,0.0,91,0.00,CLR,,0.00,WeatherDisplay:10.37,2013-09-18 08:26:00,
2013-09-18 04:31:00,75.8,73.0,29.89,NE,49,1.2,0.0,91,0.00,CLR,,0.00,WeatherDisplay:10.37,2013-09-18 08:31:00,
2013-09-18 04:36:00,75.6,73.1,29.89,NE,42,2.3,2.3,92,0.00,CLR,,0.00,WeatherDisplay:10.37,2013-09-18 08:36:00,
2013-09-18 04:41:00,75.5,73.0,29.89,NNE,24,3.5,3.5,92,0.00,CLR,,0.00,WeatherDisplay:10.37,2013-09-18 08:41:00,
2013-09-18 04:46:00,75.4,73.2,29.89,North,5,3.5,3.5,93,0.00,CLR,,0.00,WeatherDisplay:10.37,2013-09-18 08:46:00,
2013-09-18 04:51:00,75.3,73.1,29.89,North,355,2.3,2.3,93,0.00,CLR,,0.00,WeatherDisplay:10.37,2013-09-18 08:51:00,
2013-09-18 04:56:00,75.3,73.5,29.89,North,355,2.3,2.3,94,0.00,CLR,,0.00,WeatherDisplay:10.37,2013-09-18 08:56:00,
2013-09-18 05:01:00,75.4,73.6,29.89,North,355,3.5,3.5,94,0.00,CLR,,0.00,WeatherDisplay:10.37,2013-09-18 09:01:00,
2013-09-18 05:06:00,75.4,73.6,29.89,North,360,3.5,3.5,94,0.00,CLR,,0.00,WeatherDisplay:10.37,2013-09-18 09:06:00,
2013-09-18 05:11:00,75.4,73.6,29.89,North,11,4.6,4.6,94,0.00,CLR,,0.00,WeatherDisplay:10.37,2013-09-18 09:11:00,
2013-09-18 05:16:00,75.5,74.0,29.89,NNE,19,5.8,5.8,95,0.00,CLR,,0.00,WeatherDisplay:10.37,2013-09-18 09:16:00,
2013-09-18 05:21:00,75.6,74.1,29.89,NNE,21,4.0,4.0,95,0.00,CLR,,0.00,WeatherDisplay:10.37,2013-09-18 09:21:00,
2013-09-18 05:26:00,75.7,74.2,29.89,NNE,24,4.6,4.6,95,0.00,CLR,,0.00,WeatherDisplay:10.37,2013-09-18 09:26:00,
2013-09-18 05:31:00,75.9,74.4,29.90,NE,53,5.8,5.8,95,0.00,CLR,,0.00,WeatherDisplay:10.37,2013-09-18 09:31:00,
2013-09-18 05:36:00,76.0,74.1,29.90,NE,56,4.6,4.6,94,0.00,CLR,,0.00,WeatherDisplay:10.37,2013-09-18 09:36:00,
2013-09-18 05:41:00,76.1,73.9,29.90,ENE,64,5.8,5.8,93,0.00,CLR,,0.00,WeatherDisplay:10.37,2013-09-18 09:41:00,
2013-09-18 05:46:00,76.2,73.7,29.89,NE,47,3.5,4.0,92,0.00,CLR,,0.00,WeatherDisplay:10.37,2013-09-18 09:46:00,
2013-09-18 05:51:00,76.2,73.7,29.90,ENE,72,5.8,5.8,92,0.00,CLR,,0.00,WeatherDisplay:10.37,2013-09-18 09:51:00,
2013-09-18 05:56:00,76.2,73.4,29.90,NE,51,3.5,3.5,91,0.00,CLR,,0.00,WeatherDisplay:10.37,2013-09-18 09:56:00,
2013-09-18 06:01:00,76.2,73.4,29.90,NE,45,2.3,2.3,91,0.00,CLR,,0.00,WeatherDisplay:10.37,2013-09-18 10:01:00,
2013-09-18 06:06:00,76.2,73.4,29.90,NNE,28,4.0,4.0,91,0.00,CLR,,0.00,WeatherDisplay:10.37,2013-09-18 10:06:00,
2013-09-18 06:11:00,76.2,73.4,29.91,NE,42,3.5,3.5,91,0.00,CLR,,0.00,WeatherDisplay:10.37,2013-09-18 10:11:00,
2013-09-18 06:16:00,76.2,73.4,29.91,NE,40,3.5,3.5,91,0.00,CLR,,0.00,WeatherDisplay:10.37,2013-09-18 10:16:00,
2013-09-18 06:21:00,76.2,73.4,29.91,NE,51,3.5,3.5,91,0.00,CLR,,0.00,WeatherDisplay:10.37,2013-09-18 10:21:00,
2013-09-18 06:26:00,76.3,73.5,29.91,NNE,19,4.6,4.6,91,0.00,CLR,,0.00,WeatherDisplay:10.37,2013-09-18 10:26:00,
2013-09-18 06:31:00,76.4,73.2,29.91,NE,46,3.5,3.5,90,0.00,CLR,,0.00,WeatherDisplay:10.37,2013-09-18 10:31:00,
2013-09-18 06:36:00,76.5,73.3,29.92,ENE,60,3.5,3.5,90,0.00,CLR,,0.00,WeatherDisplay:10.37,2013-09-18 10:36:00,
2013-09-18 06:41:00,76.5,73.3,29.92,ENE,63,3.5,3.5,90,0.00,CLR,,0.00,WeatherDisplay:10.37,2013-09-18 10:41:00,
2013-09-18 06:46:00,76.6,73.4,29.92,NE,34,3.5,3.5,90,0.00,CLR,,0.00,WeatherDisplay:10.37,2013-09-18 10:46:00,
2013-09-18 06:51:00,76.6,73.4,29.92,NNE,30,4.0,4.0,90,0.00,CLR,,0.00,WeatherDisplay:10.37,2013-09-18 10:51:00,
2013-09-18 06:56:00,76.6,73.4,29.92,NNE,28,2.3,2.3,90,0.00,CLR,,0.00,WeatherDisplay:10.37,2013-09-18 10:56:00,
2013-09-18 07:01:00,76.6,73.8,29.92,NNE,28,1.2,1.3,91,0.00,CLR,,0.00,WeatherDisplay:10.37,2013-09-18 11:01:00,
2013-09-18 07:06:00,76.6,73.8,29.92,NNE,28,3.5,3.5,91,0.00,CLR,,0.00,WeatherDisplay:10.37,2013-09-18 11:06:00,
2013-09-18 07:11:00,76.5,73.7,29.92,NNE,24,3.5,3.5,91,0.00,CLR,,0.00,WeatherDisplay:10.37,2013-09-18 11:11:00,
2013-09-18 07:16:00,76.5,74.0,29.92,NNE,24,1.2,0.0,92,0.00,CLR,,0.00,WeatherDisplay:10.37,2013-09-18 11:16:00,
2013-09-18 07:21:00,76.4,73.9,29.92,NNE,24,0.0,0.0,92,0.00,CLR,,0.00,WeatherDisplay:10.37,2013-09-18 11:21:00,
2013-09-18 07:26:00,76.5,74.0,29.92,NNE,24,0.0,0.0,92,0.00,CLR,,0.00,WeatherDisplay:10.37,2013-09-18 11:26:00,
2013-09-18 07:31:00,76.5,74.0,29.92,NNE,24,0.0,0.0,92,0.00,CLR,,0.00,WeatherDisplay:10.37,2013-09-18 11:31:00,
2013-09-18 07:36:00,76.4,73.9,29.92,NNE,24,0.0,0.0,92,0.00,CLR,,0.00,WeatherDisplay:10.37,2013-09-18 11:36:00,
2013-09-18 07:41:00,76.4,74.2,29.93,NNE,24,0.0,0.0,93,0.00,CLR,,0.00,WeatherDisplay:10.37,2013-09-18 11:41:00,
2013-09-18 07:46:00,76.4,74.2,29.93,ESE,111,0.0,0.0,93,0.00,CLR,,0.00,WeatherDisplay:10.37,2013-09-18 11:46:00,
2013-09-18 07:51:00,76.8,74.9,29.94,SE,136,3.0,3.0,94,0.00,CLR,,0.00,WeatherDisplay:10.37,2013-09-18 11:51:00,
2013-09-18 07:56:00,77.2,75.0,29.93,ESE,118,2.3,2.3,93,0.00,CLR,,0.00,WeatherDisplay:10.37,2013-09-18 11:56:00,
2013-09-18 08:01:00,77.6,75.4,29.93,ESE,119,4.0,4.0,93,0.00,CLR,,0.00,WeatherDisplay:10.37,2013-09-18 12:01:00,
2013-09-18 08:06:00,77.7,75.2,29.93,South,185,3.5,3.5,92,0.00,CLR,,0.00,WeatherDisplay:10.37,2013-09-18 12:06:00,
2013-09-18 08:11:00,77.5,74.7,29.93,South,190,4.0,4.0,91,0.00,CLR,,0.00,WeatherDisplay:10.37,2013-09-18 12:11:00,
2013-09-18 08:16:00,77.2,74.0,29.94,SE,141,5.0,5.7,90,0.00,CLR,,0.00,WeatherDisplay:10.37,2013-09-18 12:16:00,
2013-09-18 08:21:00,77.0,73.8,29.94,SSE,147,5.8,5.8,90,0.00,CLR,,0.00,WeatherDisplay:10.37,2013-09-18 12:21:00,
2013-09-18 08:26:00,77.0,73.8,29.94,SSE,153,3.5,3.5,90,0.00,CLR,,0.00,WeatherDisplay:10.37,2013-09-18 12:26:00,
2013-09-18 08:31:00,76.9,73.7,29.94,South,171,1.2,1.2,90,0.00,CLR,,0.00,WeatherDisplay:10.37,2013-09-18 12:31:00,
2013-09-18 08:36:00,76.9,73.7,29.94,South,177,3.5,3.5,90,0.00,CLR,,0.00,WeatherDisplay:10.37,2013-09-18 12:36:00,
2013-09-18 08:41:00,76.9,73.7,29.95,South,177,0.0,0.0,90,0.00,CLR,,0.00,WeatherDisplay:10.37,2013-09-18 12:41:00,
2013-09-18 08:46:00,76.9,73.7,29.95,South,177,0.0,0.1,90,0.00,CLR,,0.00,WeatherDisplay:10.37,2013-09-18 12:46:00,
2013-09-18 08:51:00,76.9,73.4,29.95,South,187,4.0,4.0,89,0.00,CLR,,0.00,WeatherDisplay:10.37,2013-09-18 12:51:00,
2013-09-18 08:56:00,77.0,73.5,29.95,SSW,192,4.6,4.6,89,0.00,CLR,,0.00,WeatherDisplay:10.37,2013-09-18 12:56:00,
2013-09-18 09:01:00,77.1,73.6,29.95,South,182,5.0,5.0,89,0.00,CLR,,0.00,WeatherDisplay:10.37,2013-09-18 13:01:00,
2013-09-18 09:06:00,77.2,73.4,29.96,SSW,192,4.6,4.6,88,0.00,CLR,,0.00,WeatherDisplay:10.37,2013-09-18 13:06:00,
2013-09-18 09:11:00,77.3,73.5,29.96,North,11,5.0,5.5,88,0.00,CLR,,0.00,WeatherDisplay:10.37,2013-09-18 13:11:00,
2013-09-18 09:17:00,77.5,74.3,29.96,NE,34,8.1,8.1,90,0.00,CLR,,0.00,WeatherDisplay:10.37,2013-09-18 13:17:00,
2013-09-18 09:22:00,77.3,73.8,29.96,North,355,4.0,4.0,89,0.00,CLR,,0.00,WeatherDisplay:10.37,2013-09-18 13:22:00,
2013-09-18 09:27:00,77.2,74.0,29.96,NNE,22,15.0,15.0,90,0.00,CLR,,0.00,WeatherDisplay:10.37,2013-09-18 13:27:00,
2013-09-18 09:32:00,76.9,74.4,29.96,NE,41,5.8,5.8,92,0.02,RA,,0.03,WeatherDisplay:10.37,2013-09-18 13:32:00,
2013-09-18 09:37:00,76.8,74.3,29.97,SE,146,9.2,9.2,92,0.05,RA,,0.05,WeatherDisplay:10.37,2013-09-18 13:37:00,
2013-09-18 09:42:00,76.5,73.7,29.97,South,169,11.5,11.5,91,0.07,RA,,0.07,WeatherDisplay:10.37,2013-09-18 13:42:00,
2013-09-18 09:47:00,76.0,73.5,29.97,SSE,153,10.4,10.4,92,0.08,RA,,0.08,WeatherDisplay:10.37,2013-09-18 13:47:00,
2013-09-18 09:52:00,75.4,72.9,29.97,SE,136,11.5,11.5,92,0.08,RA,,0.08,WeatherDisplay:10.37,2013-09-18 13:52:00,
2013-09-18 09:57:00,74.9,72.7,29.98,SE,144,8.1,8.1,93,0.08,,,0.08,WeatherDisplay:10.37,2013-09-18 13:57:00,
2013-09-18 10:02:00,74.6,72.8,29.98,SE,142,10.4,10.4,94,0.16,RA,,0.16,WeatherDisplay:10.37,2013-09-18 14:02:00,
2013-09-18 10:07:00,74.2,72.7,29.98,South,173,9.2,9.2,95,0.32,RA,,0.32,WeatherDisplay:10.37,2013-09-18 14:07:00,
2013-09-18 10:12:00,74.2,72.7,29.98,SSE,163,5.8,5.8,95,0.36,RA,,0.36,WeatherDisplay:10.37,2013-09-18 14:12:00,
2013-09-18 10:17:00,74.1,72.6,29.97,South,184,4.6,4.6,95,0.36,RA,,0.36,WeatherDisplay:10.37,2013-09-18 14:17:00,
2013-09-18 10:22:00,73.9,72.4,29.97,South,172,6.9,6.9,95,0.36,,,0.36,WeatherDisplay:10.37,2013-09-18 14:22:00,
2013-09-18 10:27:00,73.9,72.4,29.97,South,176,5.8,5.8,95,0.36,CLR,,0.36,WeatherDisplay:10.37,2013-09-18 14:27:00,
2013-09-18 10:32:00,73.9,72.4,29.97,South,187,5.8,5.8,95,0.34,RA,,0.37,WeatherDisplay:10.37,2013-09-18 14:32:00,
2013-09-18 10:37:00,73.9,72.4,29.97,SSE,150,5.0,5.0,95,0.32,RA,,0.37,WeatherDisplay:10.37,2013-09-18 14:37:00,
2013-09-18 10:42:00,73.9,72.4,29.97,SSE,148,5.0,5.0,95,0.30,,,0.37,WeatherDisplay:10.37,2013-09-18 14:42:00,
2013-09-18 10:47:00,73.9,72.4,29.97,ESE,107,4.6,4.6,95,0.29,CLR,,0.37,WeatherDisplay:10.37,2013-09-18 14:47:00,
2013-09-18 10:52:00,73.9,72.4,29.97,ESE,119,3.5,3.5,95,0.29,CLR,,0.37,WeatherDisplay:10.37,2013-09-18 14:52:00,
2013-09-18 10:57:00,73.9,72.4,29.97,SSE,149,4.0,4.0,95,0.29,CLR,,0.37,WeatherDisplay:10.37,2013-09-18 14:57:00,
2013-09-18 11:02:00,74.1,72.6,29.97,SSE,149,5.0,5.0,95,0.21,CLR,,0.37,WeatherDisplay:10.37,2013-09-18 15:02:00,
2013-09-18 11:07:00,74.4,72.9,29.97,SSE,148,4.0,4.0,95,0.05,CLR,,0.37,WeatherDisplay:10.37,2013-09-18 15:07:00,
2013-09-18 11:12:00,74.8,73.3,29.97,SSE,155,3.5,3.5,95,0.01,CLR,,0.37,WeatherDisplay:10.37,2013-09-18 15:12:00,
2013-09-18 11:17:00,75.5,74.0,29.97,SE,129,5.8,5.8,95,0.01,CLR,,0.37,WeatherDisplay:10.37,2013-09-18 15:17:00,
2013-09-18 11:22:00,75.9,74.4,29.97,SE,138,3.0,3.0,95,0.01,CLR,,0.37,WeatherDisplay:10.37,2013-09-18 15:22:00,
2013-09-18 11:27:00,76.5,75.3,29.97,SE,143,3.5,3.5,96,0.01,CLR,,0.37,WeatherDisplay:10.37,2013-09-18 15:27:00,
2013-09-18 11:32:00,77.0,75.5,29.96,South,191,3.5,3.5,95,0.00,CLR,,0.37,WeatherDisplay:10.37,2013-09-18 15:32:00,
2013-09-18 11:37:00,77.4,75.5,29.96,SE,126,5.8,5.8,94,0.00,CLR,,0.37,WeatherDisplay:10.37,2013-09-18 15:37:00,
2013-09-18 11:42:00,78.0,75.8,29.96,SE,132,6.9,6.9,93,0.00,CLR,,0.37,WeatherDisplay:10.37,2013-09-18 15:42:00,
2013-09-18 11:47:00,78.7,76.5,29.97,SSE,162,4.0,4.0,93,0.00,CLR,,0.37,WeatherDisplay:10.37,2013-09-18 15:47:00,
2013-09-18 11:52:00,79.3,76.4,29.96,East,89,3.5,3.5,91,0.00,CLR,,0.37,WeatherDisplay:10.37,2013-09-18 15:52:00,
2013-09-18 11:57:00,79.8,76.6,29.96,ESE,105,2.3,2.3,90,0.00,CLR,,0.37,WeatherDisplay:10.37,2013-09-18 15:57:00,
2013-09-18 12:01:00,80.4,76.5,29.95,SSE,161,2.3,2.3,88,0.00,CLR,,0.37,WeatherDisplay:10.37,2013-09-18 16:01:00,
2013-09-18 12:06:00,81.2,76.6,29.95,ESE,108,3.5,3.5,86,0.00,CLR,,0.37,WeatherDisplay:10.37,2013-09-18 16:06:00,
2013-09-18 12:11:00,81.8,76.5,29.96,ESE,112,6.9,6.9,84,0.00,CLR,,0.37,WeatherDisplay:10.37,2013-09-18 16:11:00,
2013-09-18 12:16:00,82.0,76.3,29.96,East,80,3.5,3.5,83,0.00,CLR,,0.37,WeatherDisplay:10.37,2013-09-18 16:16:00,
2013-09-18 12:21:00,82.4,76.3,29.96,ENE,65,4.6,4.6,82,0.00,CLR,,0.37,WeatherDisplay:10.37,2013-09-18 16:21:00,
2013-09-18 12:26:00,82.9,76.5,29.96,SSE,158,5.8,5.8,81,0.00,CLR,,0.37,WeatherDisplay:10.37,2013-09-18 16:26:00,
2013-09-18 12:31:00,83.0,76.6,29.95,SSE,147,3.5,3.5,81,0.00,CLR,,0.37,WeatherDisplay:10.37,2013-09-18 16:31:00,
2013-09-18 12:36:00,83.2,75.6,29.95,ENE,67,8.1,8.1,78,0.00,CLR,,0.37,WeatherDisplay:10.37,2013-09-18 16:36:00,
2013-09-18 12:41:00,83.3,76.1,29.95,ENE,57,9.2,9.2,79,0.00,CLR,,0.37,WeatherDisplay:10.37,2013-09-18 16:41:00,
2013-09-18 12:46:00,83.6,76.0,29.95,SE,145,4.6,4.6,78,0.00,CLR,,0.37,WeatherDisplay:10.37,2013-09-18 16:46:00,
2013-09-18 12:51:00,83.8,76.6,29.95,ENE,77,11.0,11.0,79,0.00,CLR,,0.37,WeatherDisplay:10.37,2013-09-18 16:51:00,
2013-09-18 12:56:00,83.8,76.2,29.95,NE,52,11.5,11.5,78,0.00,CLR,,0.37,WeatherDisplay:10.37,2013-09-18 16:56:00,
2013-09-18 13:01:00,83.3,76.1,29.95,ENE,74,9.0,9.0,79,0.00,CLR,,0.37,WeatherDisplay:10.37,2013-09-18 17:01:00,
2013-09-18 13:06:00,83.1,75.9,29.95,ENE,69,11.5,11.5,79,0.00,CLR,,0.37,WeatherDisplay:10.37,2013-09-18 17:06:00,
2013-09-18 13:11:00,82.7,74.8,29.95,ENE,58,11.5,11.5,77,0.00,CLR,,0.37,WeatherDisplay:10.37,2013-09-18 17:11:00,
2013-09-18 13:16:00,82.4,75.6,29.95,ENE,68,11.5,11.5,80,0.00,CLR,,0.37,WeatherDisplay:10.37,2013-09-18 17:16:00,
2013-09-18 13:21:00,82.2,75.4,29.95,East,85,8.1,8.1,80,0.00,CLR,,0.37,WeatherDisplay:10.37,2013-09-18 17:21:00,
2013-09-18 13:26:00,82.1,76.1,29.95,ENE,65,6.0,6.0,82,0.00,CLR,,0.37,WeatherDisplay:10.37,2013-09-18 17:26:00,
2013-09-18 13:31:00,82.2,75.8,29.95,NE,53,11.5,11.5,81,0.00,CLR,,0.37,WeatherDisplay:10.37,2013-09-18 17:31:00,
2013-09-18 13:36:00,82.3,75.5,29.94,ENE,63,11.5,11.5,80,0.00,CLR,,0.37,WeatherDisplay:10.37,2013-09-18 17:36:00,
2013-09-18 13:41:00,82.7,75.9,29.94,ENE,78,9.0,9.0,80,0.00,CLR,,0.37,WeatherDisplay:10.37,2013-09-18 17:41:00,
2013-09-18 13:46:00,83.1,75.9,29.94,NE,48,11.5,11.5,79,0.00,CLR,,0.37,WeatherDisplay:10.37,2013-09-18 17:46:00,
2013-09-18 13:51:00,83.3,76.1,29.95,ENE,63,11.5,11.5,79,0.00,CLR,,0.37,WeatherDisplay:10.37,2013-09-18 17:51:00,
2013-09-18 13:56:00,83.5,75.5,29.95,ENE,65,13.8,13.8,77,0.00,CLR,,0.37,WeatherDisplay:10.37,2013-09-18 17:56:00,
2013-09-18 14:01:00,83.5,75.9,29.94,East,84,10.4,10.4,78,0.00,CLR,,0.37,WeatherDisplay:10.37,2013-09-18 18:01:00,
2013-09-18 14:06:00,84.1,76.5,29.94,ESE,123,9.0,9.0,78,0.00,CLR,,0.37,WeatherDisplay:10.37,2013-09-18 18:06:00,
2013-09-18 14:12:00,83.9,75.5,29.94,ENE,72,13.8,13.8,76,0.00,CLR,,0.37,WeatherDisplay:10.37,2013-09-18 18:12:00,
2013-09-18 14:17:00,83.1,75.1,29.94,ENE,76,11.5,11.5,77,0.00,CLR,,0.37,WeatherDisplay:10.37,2013-09-18 18:17:00,
2013-09-18 14:22:00,82.8,75.2,29.93,NE,51,7.0,7.0,78,0.00,CLR,,0.37,WeatherDisplay:10.37,2013-09-18 18:22:00,
2013-09-18 14:27:00,83.4,74.6,29.93,ENE,76,11.5,11.5,75,0.00,CLR,,0.37,WeatherDisplay:10.37,2013-09-18 18:27:00,
2013-09-18 14:32:00,84.2,75.4,29.93,ENE,69,11.0,11.0,75,0.00,CLR,,0.37,WeatherDisplay:10.37,2013-09-18 18:32:00,
2013-09-18 14:37:00,84.3,75.1,29.93,East,84,10.4,10.4,74,0.00,CLR,,0.37,WeatherDisplay:10.37,2013-09-18 18:37:00,
2013-09-18 14:42:00,83.9,74.7,29.93,NE,40,11.5,11.5,74,0.00,CLR,,0.37,WeatherDisplay:10.37,2013-09-18 18:42:00,
2013-09-18 14:47:00,83.9,74.3,29.93,NE,53,10.4,10.4,73,0.00,CLR,,0.37,WeatherDisplay:10.37,2013-09-18 18:47:00,
2013-09-18 14:52:00,84.2,75.0,29.93,ENE,74,10.0,10.0,74,0.00,CLR,,0.37,WeatherDisplay:10.37,2013-09-18 18:52:00,
2013-09-18 14:57:00,84.5,74.9,29.92,ENE,67,13.8,13.8,73,0.00,CLR,,0.37,WeatherDisplay:10.37,2013-09-18 18:57:00,
2013-09-18 15:02:00,84.0,74.4,29.92,ENE,61,11.5,11.5,73,0.00,CLR,,0.37,WeatherDisplay:10.37,2013-09-18 19:02:00,
2013-09-18 15:07:00,83.7,74.9,29.92,ENE,75,10.4,10.4,75,0.00,CLR,,0.37,WeatherDisplay:10.37,2013-09-18 19:07:00,
2013-09-18 15:12:00,83.5,74.7,29.92,East,84,11.5,11.5,75,0.00,CLR,,0.37,WeatherDisplay:10.37,2013-09-18 19:12:00,
2013-09-18 15:17:00,83.1,74.4,29.92,NE,53,8.1,8.1,75,0.00,CLR,,0.37,WeatherDisplay:10.37,2013-09-18 19:17:00,
2013-09-18 15:23:00,82.8,74.1,29.92,East,80,6.9,6.9,75,0.00,CLR,,0.37,WeatherDisplay:10.37,2013-09-18 19:23:00,
2013-09-18 15:28:00,82.8,74.1,29.92,ENE,58,10.4,10.4,75,0.00,CLR,,0.37,WeatherDisplay:10.37,2013-09-18 19:28:00,
2013-09-18 15:33:00,82.8,74.5,29.92,East,86,8.1,8.1,76,0.00,CLR,,0.37,WeatherDisplay:10.37,2013-09-18 19:33:00,
2013-09-18 15:38:00,82.7,74.8,29.92,ENE,69,6.9,6.9,77,0.00,CLR,,0.37,WeatherDisplay:10.37,2013-09-18 19:38:00,
2013-09-18 15:43:00,82.6,74.7,29.92,ENE,65,9.2,9.2,77,0.00,CLR,,0.37,WeatherDisplay:10.37,2013-09-18 19:43:00,
2013-09-18 15:48:00,82.5,74.2,29.92,ENE,69,10.4,10.4,76,0.00,CLR,,0.37,WeatherDisplay:10.37,2013-09-18 19:48:00,
2013-09-18 15:53:00,82.4,74.5,29.92,ENE,76,9.2,9.2,77,0.00,CLR,,0.37,WeatherDisplay:10.37,2013-09-18 19:53:00,
2013-09-18 15:58:00,82.4,74.8,29.92,ENE,63,9.0,9.0,78,0.00,CLR,,0.37,WeatherDisplay:10.37,2013-09-18 19:58:00,
2013-09-18 16:03:00,82.4,74.8,29.92,East,92,3.5,3.5,78,0.00,CLR,,0.37,WeatherDisplay:10.37,2013-09-18 20:03:00,
2013-09-18 16:08:00,82.7,74.8,29.92,ENE,78,8.1,8.1,77,0.00,CLR,,0.37,WeatherDisplay:10.37,2013-09-18 20:08:00,
2013-09-18 16:13:00,82.8,75.2,29.92,ENE,66,4.0,4.0,78,0.00,CLR,,0.37,WeatherDisplay:10.37,2013-09-18 20:13:00,
2013-09-18 16:18:00,82.8,74.8,29.92,ENE,74,6.9,6.9,77,0.00,CLR,,0.37,WeatherDisplay:10.37,2013-09-18 20:18:00,
2013-09-18 16:23:00,82.8,74.8,29.92,ENE,78,4.6,4.6,77,0.00,CLR,,0.37,WeatherDisplay:10.37,2013-09-18 20:23:00,
2013-09-18 16:28:00,82.8,74.8,29.92,ENE,62,6.9,6.9,77,0.00,CLR,,0.37,WeatherDisplay:10.37,2013-09-18 20:28:00,
2013-09-18 16:33:00,82.7,74.8,29.92,NE,53,10.4,10.4,77,0.00,CLR,,0.37,WeatherDisplay:10.37,2013-09-18 20:33:00,
2013-09-18 16:38:00,82.7,74.8,29.92,ENE,71,10.4,10.4,77,0.00,CLR,,0.37,WeatherDisplay:10.37,2013-09-18 20:38:00,
2013-09-18 16:43:00,82.8,75.2,29.92,ENE,75,10.4,10.4,78,0.00,CLR,,0.37,WeatherDisplay:10.37,2013-09-18 20:43:00,
2013-09-18 16:48:00,82.9,75.7,29.92,ENE,57,5.8,5.8,79,0.00,CLR,,0.37,WeatherDisplay:10.37,2013-09-18 20:48:00,
2013-09-18 16:53:00,82.7,74.8,29.92,ENE,67,10.4,10.4,77,0.00,CLR,,0.37,WeatherDisplay:10.37,2013-09-18 20:53:00,
2013-09-18 16:58:00,82.5,74.9,29.92,NE,55,9.2,9.2,78,0.00,CLR,,0.37,WeatherDisplay:10.37,2013-09-18 20:58:00,
2013-09-18 17:03:00,82.4,74.8,29.92,ENE,61,7.0,7.0,78,0.00,CLR,,0.37,WeatherDisplay:10.37,2013-09-18 21:03:00,
2013-09-18 17:08:00,82.3,75.1,29.92,ENE,57,8.1,8.1,79,0.00,CLR,,0.37,WeatherDisplay:10.37,2013-09-18 21:08:00,
2013-09-18 17:13:00,82.2,75.0,29.92,ENE,65,6.9,6.9,79,0.00,CLR,,0.37,WeatherDisplay:10.37,2013-09-18 21:13:00,
2013-09-18 17:18:00,82.1,75.3,29.92,East,87,6.9,6.9,80,0.00,CLR,,0.37,WeatherDisplay:10.37,2013-09-18 21:18:00,
2013-09-18 17:23:00,82.0,75.6,29.92,ENE,68,3.5,3.5,81,0.00,CLR,,0.37,WeatherDisplay:10.37,2013-09-18 21:23:00,
2013-09-18 17:28:00,82.0,75.6,29.92,ENE,65,7.0,7.0,81,0.00,CLR,,0.37,WeatherDisplay:10.37,2013-09-18 21:28:00,
2013-09-18 17:33:00,81.9,75.1,29.92,NE,56,6.9,6.9,80,0.00,CLR,,0.37,WeatherDisplay:10.37,2013-09-18 21:33:00,
2013-09-18 17:38:00,81.8,74.6,29.92,ENE,74,6.9,6.9,79,0.00,CLR,,0.37,WeatherDisplay:10.37,2013-09-18 21:38:00,
2013-09-18 17:43:00,81.8,74.6,29.92,ENE,71,5.8,5.8,79,0.00,CLR,,0.37,WeatherDisplay:10.37,2013-09-18 21:43:00,
2013-09-18 17:48:00,81.8,75.0,29.92,ENE,69,5.0,5.0,80,0.00,CLR,,0.37,WeatherDisplay:10.37,2013-09-18 21:48:00,
2013-09-18 17:54:00,81.8,74.6,29.92,NE,53,6.9,6.9,79,0.00,CLR,,0.37,WeatherDisplay:10.37,2013-09-18 21:54:00,
2013-09-18 17:59:00,81.7,74.9,29.92,ENE,61,4.6,4.6,80,0.00,CLR,,0.37,WeatherDisplay:10.37,2013-09-18 21:59:00,
2013-09-18 18:04:00,81.7,74.5,29.92,ENE,63,5.8,5.8,79,0.00,CLR,,0.37,WeatherDisplay:10.37,2013-09-18 22:04:00,
2013-09-18 18:09:00,81.6,74.5,29.92,East,85,4.6,4.6,79,0.00,CLR,,0.37,WeatherDisplay:10.37,2013-09-18 22:09:00,
2013-09-18 18:14:00,81.6,74.5,29.92,East,86,5.0,5.0,79,0.00,CLR,,0.37,WeatherDisplay:10.37,2013-09-18 22:14:00,
2013-09-18 18:19:00,81.6,74.8,29.92,ENE,66,6.0,6.0,80,0.00,CLR,,0.37,WeatherDisplay:10.37,2013-09-18 22:19:00,
2013-09-18 18:24:00,81.6,74.5,29.93,ENE,65,6.9,6.9,79,0.00,CLR,,0.37,WeatherDisplay:10.37,2013-09-18 22:24:00,
2013-09-18 18:29:00,81.5,74.4,29.93,ENE,59,4.0,4.0,79,0.00,CLR,,0.37,WeatherDisplay:10.37,2013-09-18 22:29:00,
2013-09-18 18:34:00,81.5,74.4,29.93,ENE,63,3.5,3.5,79,0.00,CLR,,0.37,WeatherDisplay:10.37,2013-09-18 22:34:00,
2013-09-18 18:39:00,81.5,74.7,29.93,ENE,60,6.0,6.0,80,0.00,CLR,,0.37,WeatherDisplay:10.37,2013-09-18 22:39:00,
2013-09-18 18:44:00,81.4,74.6,29.93,East,83,11.5,11.5,80,0.00,CLR,,0.37,WeatherDisplay:10.37,2013-09-18 22:44:00,
2013-09-18 18:49:00,81.1,74.0,29.93,ENE,71,11.5,11.5,79,0.00,CLR,,0.37,WeatherDisplay:10.37,2013-09-18 22:49:00,
2013-09-18 18:54:00,81.0,73.9,29.93,ENE,75,6.0,6.0,79,0.00,CLR,,0.37,WeatherDisplay:10.37,2013-09-18 22:54:00,
2013-09-18 18:59:00,80.9,73.4,29.93,ENE,69,6.9,6.9,78,0.00,CLR,,0.37,WeatherDisplay:10.37,2013-09-18 22:59:00,
2013-09-18 19:04:00,80.8,73.3,29.93,East,82,6.9,6.9,78,0.00,CLR,,0.37,WeatherDisplay:10.37,2013-09-18 23:04:00,
2013-09-18 19:09:00,80.7,73.2,29.93,ENE,76,5.8,5.8,78,0.00,CLR,,0.37,WeatherDisplay:10.37,2013-09-18 23:09:00,
2013-09-18 19:14:00,80.7,72.8,29.93,ENE,65,3.5,3.5,77,0.00,CLR,,0.37,WeatherDisplay:10.37,2013-09-18 23:14:00,
2013-09-18 19:19:00,80.5,73.0,29.93,ENE,68,1.2,1.2,78,0.00,CLR,,0.37,WeatherDisplay:10.37,2013-09-18 23:19:00,
2013-09-18 19:24:00,80.4,72.9,29.93,ENE,57,0.0,0.0,78,0.00,CLR,,0.37,WeatherDisplay:10.37,2013-09-18 23:24:00,
2013-09-18 19:29:00,80.3,72.8,29.93,NE,56,2.3,2.3,78,0.00,CLR,,0.37,WeatherDisplay:10.37,2013-09-18 23:29:00,
2013-09-18 19:34:00,80.2,72.7,29.94,NE,56,0.0,0.0,78,0.00,CLR,,0.37,WeatherDisplay:10.37,2013-09-18 23:34:00,
2013-09-18 19:39:00,80.1,73.0,29.94,ENE,57,1.2,0.0,79,0.00,CLR,,0.37,WeatherDisplay:10.37,2013-09-18 23:39:00,
2013-09-18 19:44:00,80.1,73.4,29.94,NE,56,0.0,0.0,80,0.00,CLR,,0.37,WeatherDisplay:10.37,2013-09-18 23:44:00,
2013-09-18 19:49:00,80.0,73.3,29.94,NE,56,0.0,0.0,80,0.00,CLR,,0.37,WeatherDisplay:10.37,2013-09-18 23:49:00,
2013-09-18 19:54:00,79.9,73.2,29.94,NE,56,0.0,0.0,80,0.00,CLR,,0.37,WeatherDisplay:10.37,2013-09-18 23:54:00,
2013-09-18 19:59:00,79.8,73.4,29.94,NE,56,0.0,0.0,81,0.00,CLR,,0.37,WeatherDisplay:10.37,2013-09-18 23:59:00,
2013-09-18 20:04:00,79.7,73.7,29.94,NE,56,1.2,1.2,82,0.00,CLR,,0.37,WeatherDisplay:10.37,2013-09-19 00:04:00,
2013-09-18 20:09:00,79.5,73.5,29.94,NE,49,1.2,1.2,82,0.00,CLR,,0.37,WeatherDisplay:10.37,2013-09-19 00:09:00,
2013-09-18 20:14:00,79.3,73.7,29.94,NE,38,1.2,1.2,83,0.00,CLR,,0.37,WeatherDisplay:10.37,2013-09-19 00:14:00,
2013-09-18 20:19:00,79.2,73.9,29.94,NE,38,0.0,0.0,84,0.00,CLR,,0.37,WeatherDisplay:10.37,2013-09-19 00:19:00,
2013-09-18 20:24:00,78.9,74.0,29.95,NE,38,0.0,0.0,85,0.00,CLR,,0.37,WeatherDisplay:10.37,2013-09-19 00:24:00,
2013-09-18 20:29:00,78.7,73.8,29.95,NE,38,0.0,0.0,85,0.00,CLR,,0.37,WeatherDisplay:10.37,2013-09-19 00:29:00,
2013-09-18 20:34:00,78.6,73.7,29.95,NE,38,0.0,0.0,85,0.00,CLR,,0.37,WeatherDisplay:10.37,2013-09-19 00:34:00,
2013-09-18 20:39:00,78.6,74.1,29.96,NE,38,1.2,1.2,86,0.00,CLR,,0.37,WeatherDisplay:10.37,2013-09-19 00:39:00,
2013-09-18 20:44:00,78.5,74.0,29.96,NE,34,1.2,1.2,86,0.00,CLR,,0.37,WeatherDisplay:10.37,2013-09-19 00:44:00,
2013-09-18 20:49:00,78.4,74.2,29.96,NE,34,0.0,0.0,87,0.00,CLR,,0.37,WeatherDisplay:10.37,2013-09-19 00:49:00,
2013-09-18 20:54:00,78.5,74.6,29.96,NE,34,0.0,0.0,88,0.00,CLR,,0.37,WeatherDisplay:10.37,2013-09-19 00:54:00,
2013-09-18 20:59:00,78.5,74.6,29.96,NE,34,0.0,0.0,88,0.00,CLR,,0.37,WeatherDisplay:10.37,2013-09-19 00:59:00,
2013-09-18 21:04:00,78.4,74.5,29.97,NE,34,0.0,0.0,88,0.00,CLR,,0.37,WeatherDisplay:10.37,2013-09-19 01:04:00,
2013-09-18 21:09:00,78.4,74.5,29.97,NE,34,0.0,0.0,88,0.00,CLR,,0.37,WeatherDisplay:10.37,2013-09-19 01:09:00,
2013-09-18 21:14:00,78.3,74.5,29.97,NE,34,0.0,0.0,88,0.00,CLR,,0.37,WeatherDisplay:10.37,2013-09-19 01:14:00,
2013-09-18 21:19:00,78.3,74.5,29.97,SSE,164,1.0,1.0,88,0.00,CLR,,0.37,WeatherDisplay:10.37,2013-09-19 01:19:00,
2013-09-18 21:24:00,78.2,74.7,29.98,SW,223,3.5,3.5,89,0.00,CLR,,0.37,WeatherDisplay:10.37,2013-09-19 01:24:00,
2013-09-18 21:29:00,78.2,74.7,29.98,SW,223,1.2,1.2,89,0.00,CLR,,0.37,WeatherDisplay:10.37,2013-09-19 01:29:00,
2013-09-18 21:34:00,78.2,74.4,29.97,SW,232,3.5,3.5,88,0.00,CLR,,0.37,WeatherDisplay:10.37,2013-09-19 01:34:00,
2013-09-18 21:39:00,78.1,74.3,29.97,SW,230,2.3,2.3,88,0.00,CLR,,0.37,WeatherDisplay:10.37,2013-09-19 01:39:00,
2013-09-18 21:44:00,78.1,74.3,29.97,SW,236,0.0,0.0,88,0.00,CLR,,0.37,WeatherDisplay:10.37,2013-09-19 01:44:00,
2013-09-18 21:49:00,78.1,74.3,29.97,SW,235,3.5,3.5,88,0.00,CLR,,0.37,WeatherDisplay:10.37,2013-09-19 01:49:00,
2013-09-18 21:54:00,78.1,74.3,29.97,SW,223,2.3,2.3,88,0.00,CLR,,0.37,WeatherDisplay:10.37,2013-09-19 01:54:00,
2013-09-18 21:59:00,78.1,74.3,29.97,SW,215,3.5,3.5,88,0.00,CLR,,0.37,WeatherDisplay:10.37,2013-09-19 01:59:00,
2013-09-18 22:04:00,78.0,74.2,29.97,SW,233,3.5,3.5,88,0.00,CLR,,0.37,WeatherDisplay:10.37,2013-09-19 02:04:00,
2013-09-18 22:09:00,77.9,74.1,29.97,SW,235,1.2,1.2,88,0.00,CLR,,0.37,WeatherDisplay:10.37,2013-09-19 02:09:00,
2013-09-18 22:14:00,77.8,74.3,29.97,SW,236,1.2,1.2,89,0.00,CLR,,0.37,WeatherDisplay:10.37,2013-09-19 02:14:00,
2013-09-18 22:19:00,77.6,74.1,29.97,WSW,246,3.5,3.5,89,0.00,CLR,,0.37,WeatherDisplay:10.37,2013-09-19 02:19:00,
2013-09-18 22:24:00,77.4,73.9,29.97,West,263,3.5,3.5,89,0.00,CLR,,0.37,WeatherDisplay:10.37,2013-09-19 02:24:00,
2013-09-18 22:29:00,77.3,73.8,29.97,West,259,2.3,2.3,89,0.00,CLR,,0.37,WeatherDisplay:10.37,2013-09-19 02:29:00,
2013-09-18 22:34:00,77.2,73.7,29.98,West,259,2.3,2.3,89,0.00,CLR,,0.37,WeatherDisplay:10.37,2013-09-19 02:34:00,
2013-09-18 22:39:00,77.1,73.6,29.98,West,259,3.5,3.5,89,0.00,CLR,,0.37,WeatherDisplay:10.37,2013-09-19 02:39:00,
2013-09-18 22:45:00,77.0,73.5,29.98,West,264,3.5,3.5,89,0.00,CLR,,0.37,WeatherDisplay:10.37,2013-09-19 02:45:00,
2013-09-18 22:50:00,76.9,73.4,29.98,West,267,2.3,2.3,89,0.00,CLR,,0.37,WeatherDisplay:10.37,2013-09-19 02:50:00,
2013-09-18 22:55:00,76.9,73.7,29.97,West,267,0.0,0.0,90,0.00,CLR,,0.37,WeatherDisplay:10.37,2013-09-19 02:55:00,
2013-09-18 23:00:00,76.8,73.6,29.97,West,267,0.0,0.0,90,0.00,CLR,,0.37,WeatherDisplay:10.37,2013-09-19 03:00:00,
2013-09-18 23:05:00,76.8,73.6,29.98,West,267,0.0,0.0,90,0.00,CLR,,0.37,WeatherDisplay:10.37,2013-09-19 03:05:00,
2013-09-18 23:10:00,76.7,73.5,29.98,West,267,2.3,2.3,90,0.00,CLR,,0.37,WeatherDisplay:10.37,2013-09-19 03:10:00,
2013-09-18 23:15:00,76.6,73.4,29.98,West,267,3.5,3.5,90,0.00,CLR,,0.37,WeatherDisplay:10.37,2013-09-19 03:15:00,
2013-09-18 23:20:00,76.5,73.7,29.98,West,269,3.5,3.5,91,0.00,CLR,,0.37,WeatherDisplay:10.37,2013-09-19 03:20:00,
2013-09-18 23:25:00,76.4,73.6,29.98,WSW,246,4.6,4.6,91,0.00,CLR,,0.37,WeatherDisplay:10.37,2013-09-19 03:25:00,
2013-09-18 23:31:00,76.3,73.5,29.98,West,281,8.1,8.1,91,0.00,CLR,,0.37,WeatherDisplay:10.37,2013-09-19 03:31:00,
2013-09-18 23:36:00,76.2,73.4,29.97,NW,313,3.5,3.5,91,0.00,CLR,,0.37,WeatherDisplay:10.37,2013-09-19 03:36:00,
2013-09-18 23:41:00,76.1,73.3,29.97,NW,317,5.8,5.8,91,0.00,CLR,,0.37,WeatherDisplay:10.37,2013-09-19 03:41:00,
2013-09-18 23:46:00,76.0,73.2,29.97,NNW,329,5.8,5.8,91,0.00,CLR,,0.37,WeatherDisplay:10.37,2013-09-19 03:46:00,
2013-09-18 23:51:00,75.9,73.1,29.97,NNW,338,3.5,3.5,91,0.00,CLR,,0.37,WeatherDisplay:10.37,2013-09-19 03:51:00,
2013-09-18 23:56:00,75.8,73.0,29.97,NW,306,3.5,3.5,91,0.00,CLR,,0.37,WeatherDisplay:10.37,2013-09-19 03:56:00,